Погода в Мариинском

Россия / Челябинская область     52°19′38″N   61°00′30″E
темп.,
°C
ветер,
м/с
пор.,
м/с
влажн.,
%
обл.,
%
осадки,
мм/ч
давл.,
гПа
погр.,
м
19 мая, ср
ср1923:00+19з335398 0.6 101453
02:00+18с4760100 0.3 1014164
05:00+15св61275100 1.6 1015368
08:00+16всв81274100 0.4 1017626
11:00+20всв8954100 0.4 10181126
14:00+22всв894083 0.0 10181784
17:00+23всв7834100 0.0 10182019
20:00+20всв610370 0.0 1018477
20 мая, чт
чт2023:00+16всв511440 0.0 1020321
02:00+14всв410510 0.0 1021208
05:00+12в46580 0.0 1022113
08:00+17вюв57465 0.0 1023478
11:00+21вюв563243 0.0 10231457
14:00+23вюв44260 0.0 10221816
17:00+24юв44240 0.0 10212049
20:00+21вюв35320 0.0 102194
21 мая, пт
пт2123:00+17юв35430 0.0 102164
02:00+16ююв34480 0.0 102142
05:00+14ююв34530 0.0 102249
08:00+19ю45390 0.0 1022357
11:00+23ю45270 0.0 10221606
14:00+26ююв55210 0.0 10202063
17:00+27ююз45195 0.0 10202587
20:00+24ююз3427100 0.0 102050
22 мая, сб
сб2223:00+21ю353287 0.0 102090
02:00+18ю364131 0.0 102079
05:00+17ююз34435 0.0 102142
08:00+21ююз35335 0.0 1022351
11:00+26ююз452299 0.0 10211354
14:00+29ююз452021 0.0 10202771
17:00+29зюз56215 0.0 10203206
20:00+26з47325 0.0 1020139
23 мая, вс
вс2323:00+22зсз454358 0.0 102161
02:00+19с3348100 0.0 102131
05:00+18с335382 0.0 102121
08:00+22ссз334332 0.0 1022261
11:00+27сз232991 0.0 10221205
14:00+30ссз332362 0.0 10212116
17:00+31с332293 0.0 10202504
20:00+27ссв353389 0.0 102196